sat.trackr.live / text

‹ back to catalog

ORS-5 SENSORSAT

NORAD 42921 · 2017-050A

PAYLOAD ACTIVE UNKNOWN

§ Identity

Operator
Country
US
Launch date
2017-08-26
Launch site
AFETR
Launch vehicle
Mass (kg)
RCS (m²)

External: N2YO · Heavens-Above · Gunter

§ Orbital elements

Epoch: 2026-05-25T02:41:05.853984Z

Period
95.95 min
Inclination
0.0497°
Eccentricity
0.0010460
Mean motion
15.00804065 rev/d
Perigee alt
557.2 km
Apogee alt
571.7 km
Semi-major
6,942.6 km
B*
1.1593e-4
RAAN
318.3370°
Arg perigee
78.0004°
Mean anomaly
323.7337°
Rev number
47,757

§ Raw data

ORS-5 SENSORSAT1 42921U 17050A   26145.11187331  .00002349  00000+0  11593-3 0  99932 42921   0.0497 318.3370 0010460  78.0004 323.7337 15.00804065477572

JSON: /api/v1/satellites/42921 · /tle

For live sub-satellite position, see the globe view (requires WebGL).

§ Visibility from observer

Set your observer location to see the next 7 days of passes ≥ 10°. The values pass through the URL so the page stays shareable.

No JS? Fill the form by hand. The geolocation button needs JavaScript.